User: anonymous   Login
Location: Dompnac
(44.5644°N, 4.1026°E)
Time: 05:15:30
(UTC+00:00)
Language:

COSMOS 2406 - Orbit

View from above orbital plane
View from above orbital plane
View from above satellite
View from above satellite

Ground track
Ground track

The orbit data is extracted from the following two-line orbital elements,

1 28352U 04021A   21208.76393895 -.00000315  00000-0 -14668-3 0  9999
2 28352  71.0030 229.1611 0013945 343.0511  17.0142 14.11706682882755
Epoch (UTC): 27 July 2021 18:20:04
Eccentricity: 0.0013945
inclination: 71.0030°
perigee height: 843 km
apogee height: 863 km
right ascension of ascending node: 229.1611°
argument of perigee: 343.0511°
revolutions per day: 14.11706682
mean anomaly at epoch: 17.0142°
orbit number at epoch: 88275

The dashed part of the orbit path shows where the satellite is in the earth's shadow,  

DLR